User: anonymous   Login
Location: Unspecified
(0.0000°N, 0.0000°E)
Time: 06:13:26
(UTC+00:00)
Language:

SJ-7 - Orbit

View from above orbital plane
View from above orbital plane
View from above satellite
View from above satellite

Ground track
Ground track

The orbit data is extracted from the following two-line orbital elements,

1 28737U 05024A   18203.56232814 +.00000489 +00000-0 +48624-4 0  9992
2 28737 097.6627 206.5565 0035435 056.8627 303.5985 14.95668673714795
Epoch (UTC): 22 July 2018 13:29:45
Eccentricity: 0.0035435
inclination: 97.6627°
perigee height: 555 km
apogee height: 605 km
right ascension of ascending node: 206.5565°
argument of perigee: 56.8627°
revolutions per day: 14.95668673
mean anomaly at epoch: 303.5985°
orbit number at epoch: 71479

The dashed part of the orbit path shows where the satellite is in the earth's shadow,  

DLR